Location: College Park
(38.9810°N, 76.9370°W)
Time: 06:40:36
(UTC-05:00)

ISS - Visible Passes

Search period start: 24 February 2018 00:00
Search period end: 06 March 2018 00:00
Orbit: 402 x 407 km, 51.6° (Epoch: 24 February)

Date Brightness Start Highest point End Pass type
(mag) Time Alt. Az. Time Alt. Az. Time Alt. Az.
25 Feb -1.4 05:50:01 10° S 05:52:41 23° SE 05:55:20 10° ENE visible
26 Feb -0.8 04:59:24 10° SSE 05:00:39 12° SE 05:01:56 10° ESE visible
27 Feb -3.4 05:41:26 11° SW 05:44:31 61° SE 05:47:46 10° ENE visible
28 Feb -2.2 04:51:56 28° SSE 04:52:23 29° SE 04:55:17 10° ENE visible
01 Mar -0.3 04:02:14 10° E 04:02:14 10° E 04:02:17 10° E visible
01 Mar -3.6 05:34:55 26° W 05:36:28 52° NW 05:39:41 10° NE visible
02 Mar -2.8 04:45:03 46° ENE 04:45:03 46° ENE 04:47:28 10° NE visible
03 Mar -2.5 05:27:43 23° NW 05:28:31 25° NNW 05:31:19 10° NNE visible
04 Mar -1.8 04:37:37 24° NNE 04:37:37 24° NNE 04:39:14 10° NE visible
05 Mar -1.7 05:20:04 15° NNW 05:20:39 16° NNW 05:22:44 10° NNE visible
